Todd G — WRC6671 — position and weather

sailwx.info

Track history (hours):
 
Tides and Currents Weather Stations Pressure Air Temp Water Temp Dewpoint Dewpoint Depression Visibility Wind Speed Wind Dir Waves Ship Positions

Todd G

Owner: Harbor Towing & Fleeting, Inc., Metairie, LA. More information available from US FCC via Universal Licensing System and Coast Guard Vessel Documentation Center.

Last reported at 2014-Nov-24 02:31 UTC. Time now 2014-Nov-24 02:55 UTC.
Position N 29°56' W 090°00'.

Length 16 m.

Type: Towing. MMSI: 366988470.

Date/timePositionNaut miles runAvg speedWind from/ knotsBaromVisibWave heightAir tempDewpointWater temp
2014-Nov-24 02:31N 29°56' W 090°00'0 0.0
2014-Nov-24 01:22N 29°56' W 090°00'0 0.0
2014-Nov-24 00:32N 29°56' W 090°00'0 0.1
2014-Nov-23 23:29N 29°56' W 090°00'0 0.0
2014-Nov-23 22:33N 29°56' W 090°00'0 0.3
2014-Nov-23 21:31N 29°56' W 090°00'0 0.0
2014-Nov-23 20:31N 29°56' W 090°00'0 0.0
2014-Nov-23 19:08N 29°56' W 090°00'2 0.1
2014-Nov-22 20:30N 29°58' W 090°02'1 0.4
2014-Nov-22 18:07N 29°59' W 090°01'1 1.5
2014-Nov-22 17:21N 29°58' W 090°02'0 0.4
2014-Nov-22 16:33N 29°57' W 090°02'2 1.5
2014-Nov-22 15:23N 29°56' W 090°00'0 0.2
2014-Nov-22 14:34N 29°56' W 090°00'0 0.0
2014-Nov-22 13:29N 29°56' W 090°00'0 0.0
2014-Nov-22 12:17N 29°56' W 090°00'0 0.3
2014-Nov-22 11:32N 29°56' W 090°00'0 0.0
2014-Nov-22 10:32N 29°56' W 090°00'0 0.0
2014-Nov-22 09:31N 29°56' W 090°00'0 0.0
2014-Nov-22 08:33N 29°56' W 090°00'0 0.0
2014-Nov-22 07:28N 29°56' W 090°00'0 0.0
2014-Nov-22 06:29N 29°56' W 090°00'0 0.0
2014-Nov-22 05:33N 29°56' W 090°00'0 0.0
2014-Nov-22 04:33N 29°56' W 090°00'0 0.0
2014-Nov-22 03:27N 29°56' W 090°00'0 0.0
2014-Nov-22 02:32N 29°56' W 090°00'0 0.0
2014-Nov-22 01:33N 29°56' W 090°00'2 1.6
2014-Nov-22 00:11N 29°58' W 090°02'1 2.2
2014-Nov-21 23:32N 29°59' W 090°01'3 0.2
2014-Nov-21 10:30N 29°56' W 090°00'0 0.0
2014-Nov-21 09:20N 29°56' W 090°00'0 0.0
2014-Nov-21 06:31N 29°56' W 090°00'0 0.0
2014-Nov-21 05:18N 29°56' W 090°00'0 0.0
2014-Nov-21 04:23N 29°56' W 090°00'0 0.0
2014-Nov-21 02:17N 29°56' W 090°00'0 0.0
2014-Nov-21 01:19N 29°56' W 090°00'0 0.2
2014-Nov-21 00:33N 29°56' W 090°00'2 1.8
2014-Nov-20 23:27N 29°58' W 090°02'1 1.0
2014-Nov-20 22:32N 29°59' W 090°01'0 0.0
2014-Nov-20 21:26N 29°59' W 090°01'0 0.0
2014-Nov-20 20:33N 29°59' W 090°01'0 0.0
2014-Nov-20 19:31N 29°59' W 090°01'0 0.0
2014-Nov-20 18:33N 29°59' W 090°01'0 0.4
2014-Nov-20 17:32N 29°59' W 090°01'0 0.2
2014-Nov-20 16:34N 29°59' W 090°01'0 0.2
2014-Nov-20 15:33N 29°59' W 090°01'0 0.0
2014-Nov-20 14:32N 29°59' W 090°01'0 0.2
2014-Nov-20 13:31N 29°59' W 090°01'0 0.0
2014-Nov-20 12:32N 29°59' W 090°01'2 1.6
2014-Nov-20 11:26N 29°58' W 090°02'1 0.1
2014-Nov-19 17:30N 29°59' W 090°01'0 0.0
2014-Nov-19 16:19N 29°59' W 090°01'1 0.3
2014-Nov-19 14:16N 29°60' W 090°01'0 0.4
2014-Nov-19 13:33N 29°59' W 090°01'0 0.0
2014-Nov-19 12:21N 29°59' W 090°01'0 0.0
2014-Nov-19 11:15N 29°59' W 090°01'0 0.0
2014-Nov-19 10:25N 29°59' W 090°01'0 0.0
2014-Nov-19 09:33N 29°59' W 090°01'0 0.0
2014-Nov-19 08:14N 29°59' W 090°01'0 0.0
2014-Nov-19 07:33N 29°59' W 090°01'0 0.0
2014-Nov-19 06:28N 29°59' W 090°01'0 0.0
2014-Nov-19 05:32N 29°59' W 090°01'0 0.0
2014-Nov-19 04:33N 29°59' W 090°01'0 0.0
2014-Nov-19 03:32N 29°59' W 090°01'0 0.0
2014-Nov-19 02:31N 29°59' W 090°01'0 0.0
2014-Nov-19 01:33N 29°59' W 090°01'2 1.6
2014-Nov-19 00:33N 29°58' W 090°02'2 1.6
2014-Nov-18 23:29N 29°56' W 090°01'0 0.2
2014-Nov-18 22:05N 29°56' W 090°00'2 0.1
2014-Nov-18 00:22N 29°59' W 090°01'1 0.9
2014-Nov-17 23:15N 29°58' W 090°02'0 0.0
2014-Nov-17 22:12N 29°58' W 090°02'0 0.0
2014-Nov-17 21:33N 29°58' W 090°02'0 0.0
2014-Nov-17 20:29N 29°58' W 090°02'0 0.0
2014-Nov-17 19:33N 29°58' W 090°02'0 0.0
2014-Nov-17 18:31N 29°58' W 090°02'0 0.0
2014-Nov-17 17:33N 29°58' W 090°02'0 0.0
2014-Nov-17 16:32N 29°58' W 090°02'0 0.0
2014-Nov-17 15:31N 29°58' W 090°02'0 0.2
2014-Nov-17 14:33N 29°57' W 090°02'1 0.1
2014-Nov-17 00:29N 29°58' W 090°01'0 0.2
2014-Nov-16 22:19N 29°58' W 090°02'1 0.9
2014-Nov-16 21:33N 29°57' W 090°02'0 0.1
2014-Nov-16 20:32N 29°57' W 090°01'1 1.3
2014-Nov-16 19:29N 29°56' W 090°00'0 0.0
2014-Nov-16 18:32N 29°56' W 090°00'0 0.0
2014-Nov-16 17:31N 29°56' W 090°00'0 0.0
2014-Nov-16 16:33N 29°56' W 090°00'1 1.0
2014-Nov-16 15:32N 29°56' W 089°59'1 0.7
2014-Nov-16 13:33N 29°57' W 090°01'2 1.6
2014-Nov-16 12:30N 29°58' W 090°02'2 1.6
2014-Nov-16 11:30N 29°59' W 090°01'2 0.1
2014-Nov-15 19:28N 29°57' W 090°02'0 0.0
2014-Nov-15 18:32N 29°57' W 090°02'0 0.0
2014-Nov-15 17:23N 29°57' W 090°02'0 0.0
2014-Nov-15 16:33N 29°57' W 090°02'0 0.0
2014-Nov-15 15:33N 29°57' W 090°02'1 0.5
2014-Nov-15 14:32N 29°58' W 090°02'1 0.8
2014-Nov-15 13:33N 29°58' W 090°02'2 2.0
2014-Nov-15 12:29N 29°60' W 090°00'0 0.1
2014-Nov-15 11:33N 29°60' W 090°01'3 2.5
2014-Nov-15 10:34N 29°57' W 090°02'1 1.3
2014-Nov-15 09:26N 29°56' W 090°00'0 0.0
2014-Nov-15 08:23N 29°56' W 090°00'0 0.0
2014-Nov-15 07:24N 29°56' W 090°00'3 0.3
2014-Nov-14 21:22N 29°60' W 090°00'2 1.3
2014-Nov-14 19:29N 29°58' W 090°02'2 1.7
2014-Nov-14 18:04N 29°60' W 090°00'3 1.1
2014-Nov-14 15:30N 29°57' W 090°01'1 0.3
2014-Nov-14 12:31N 29°56' W 090°00'0 0.3
2014-Nov-14 11:23N 29°57' W 090°01'2 1.6
2014-Nov-14 10:24N 29°58' W 090°02'2 2.5
2014-Nov-14 09:31N 29°60' W 090°00'2 1.7
2014-Nov-14 08:33N 29°59' W 090°01'1 1.1
2014-Nov-14 07:32N 29°58' W 090°02'2 1.7
2014-Nov-14 06:33N 29°56' W 090°00'0 0.2
2014-Nov-14 05:31N 29°56' W 090°00'0 0.0
2014-Nov-14 04:31N 29°56' W 090°00'0 0.0
2014-Nov-14 03:31N 29°56' W 090°00'0 0.0
2014-Nov-14 02:33N 29°56' W 090°00'  
Track history (hours):
 
Tides and Currents Weather Stations Pressure Air Temp Water Temp Dewpoint Dewpoint Depression Visibility Wind Speed Wind Dir Waves Ship Positions

Todd G

Owner: Harbor Towing & Fleeting, Inc., Metairie, LA. More information available from US FCC via Universal Licensing System and Coast Guard Vessel Documentation Center.

Last reported at 2014-Nov-24 02:31 UTC. Time now 2014-Nov-24 02:55 UTC.
Position N 29°56' W 090°00'.

Length 16 m.

Type: Towing. MMSI: 366988470.

Date/timePositionNaut miles runAvg speedWind from/ knotsBaromVisibWave heightAir tempDewpointWater temp
2014-Nov-24 02:31N 29°56' W 090°00'0 0.0
2014-Nov-24 01:22N 29°56' W 090°00'0 0.0
2014-Nov-24 00:32N 29°56' W 090°00'0 0.1
2014-Nov-23 23:29N 29°56' W 090°00'0 0.0
2014-Nov-23 22:33N 29°56' W 090°00'0 0.3
2014-Nov-23 21:31N 29°56' W 090°00'0 0.0
2014-Nov-23 20:31N 29°56' W 090°00'0 0.0
2014-Nov-23 19:08N 29°56' W 090°00'2 0.1
2014-Nov-22 20:30N 29°58' W 090°02'1 0.4
2014-Nov-22 18:07N 29°59' W 090°01'1 1.5
2014-Nov-22 17:21N 29°58' W 090°02'0 0.4
2014-Nov-22 16:33N 29°57' W 090°02'2 1.5
2014-Nov-22 15:23N 29°56' W 090°00'0 0.2
2014-Nov-22 14:34N 29°56' W 090°00'0 0.0
2014-Nov-22 13:29N 29°56' W 090°00'0 0.0
2014-Nov-22 12:17N 29°56' W 090°00'0 0.3
2014-Nov-22 11:32N 29°56' W 090°00'0 0.0
2014-Nov-22 10:32N 29°56' W 090°00'0 0.0
2014-Nov-22 09:31N 29°56' W 090°00'0 0.0
2014-Nov-22 08:33N 29°56' W 090°00'0 0.0
2014-Nov-22 07:28N 29°56' W 090°00'0 0.0
2014-Nov-22 06:29N 29°56' W 090°00'0 0.0
2014-Nov-22 05:33N 29°56' W 090°00'0 0.0
2014-Nov-22 04:33N 29°56' W 090°00'0 0.0
2014-Nov-22 03:27N 29°56' W 090°00'0 0.0
2014-Nov-22 02:32N 29°56' W 090°00'0 0.0
2014-Nov-22 01:33N 29°56' W 090°00'2 1.6
2014-Nov-22 00:11N 29°58' W 090°02'1 2.2
2014-Nov-21 23:32N 29°59' W 090°01'3 0.2
2014-Nov-21 10:30N 29°56' W 090°00'0 0.0
2014-Nov-21 09:20N 29°56' W 090°00'0 0.0
2014-Nov-21 06:31N 29°56' W 090°00'0 0.0
2014-Nov-21 05:18N 29°56' W 090°00'0 0.0
2014-Nov-21 04:23N 29°56' W 090°00'0 0.0
2014-Nov-21 02:17N 29°56' W 090°00'0 0.0
2014-Nov-21 01:19N 29°56' W 090°00'0 0.2
2014-Nov-21 00:33N 29°56' W 090°00'2 1.8
2014-Nov-20 23:27N 29°58' W 090°02'1 1.0
2014-Nov-20 22:32N 29°59' W 090°01'0 0.0
2014-Nov-20 21:26N 29°59' W 090°01'0 0.0
2014-Nov-20 20:33N 29°59' W 090°01'0 0.0
2014-Nov-20 19:31N 29°59' W 090°01'0 0.0
2014-Nov-20 18:33N 29°59' W 090°01'0 0.4
2014-Nov-20 17:32N 29°59' W 090°01'0 0.2
2014-Nov-20 16:34N 29°59' W 090°01'0 0.2
2014-Nov-20 15:33N 29°59' W 090°01'0 0.0
2014-Nov-20 14:32N 29°59' W 090°01'0 0.2
2014-Nov-20 13:31N 29°59' W 090°01'0 0.0
2014-Nov-20 12:32N 29°59' W 090°01'2 1.6
2014-Nov-20 11:26N 29°58' W 090°02'1 0.1
2014-Nov-19 17:30N 29°59' W 090°01'0 0.0
2014-Nov-19 16:19N 29°59' W 090°01'1 0.3
2014-Nov-19 14:16N 29°60' W 090°01'0 0.4
2014-Nov-19 13:33N 29°59' W 090°01'0 0.0
2014-Nov-19 12:21N 29°59' W 090°01'0 0.0
2014-Nov-19 11:15N 29°59' W 090°01'0 0.0
2014-Nov-19 10:25N 29°59' W 090°01'0 0.0
2014-Nov-19 09:33N 29°59' W 090°01'0 0.0
2014-Nov-19 08:14N 29°59' W 090°01'0 0.0
2014-Nov-19 07:33N 29°59' W 090°01'0 0.0
2014-Nov-19 06:28N 29°59' W 090°01'0 0.0
2014-Nov-19 05:32N 29°59' W 090°01'0 0.0
2014-Nov-19 04:33N 29°59' W 090°01'0 0.0
2014-Nov-19 03:32N 29°59' W 090°01'0 0.0
2014-Nov-19 02:31N 29°59' W 090°01'0 0.0
2014-Nov-19 01:33N 29°59' W 090°01'2 1.6
2014-Nov-19 00:33N 29°58' W 090°02'2 1.6
2014-Nov-18 23:29N 29°56' W 090°01'0 0.2
2014-Nov-18 22:05N 29°56' W 090°00'2 0.1
2014-Nov-18 00:22N 29°59' W 090°01'1 0.9
2014-Nov-17 23:15N 29°58' W 090°02'0 0.0
2014-Nov-17 22:12N 29°58' W 090°02'0 0.0
2014-Nov-17 21:33N 29°58' W 090°02'0 0.0
2014-Nov-17 20:29N 29°58' W 090°02'0 0.0
2014-Nov-17 19:33N 29°58' W 090°02'0 0.0
2014-Nov-17 18:31N 29°58' W 090°02'0 0.0
2014-Nov-17 17:33N 29°58' W 090°02'0 0.0
2014-Nov-17 16:32N 29°58' W 090°02'0 0.0
2014-Nov-17 15:31N 29°58' W 090°02'0 0.2
2014-Nov-17 14:33N 29°57' W 090°02'1 0.1
2014-Nov-17 00:29N 29°58' W 090°01'0 0.2
2014-Nov-16 22:19N 29°58' W 090°02'1 0.9
2014-Nov-16 21:33N 29°57' W 090°02'0 0.1
2014-Nov-16 20:32N 29°57' W 090°01'1 1.3
2014-Nov-16 19:29N 29°56' W 090°00'0 0.0
2014-Nov-16 18:32N 29°56' W 090°00'0 0.0
2014-Nov-16 17:31N 29°56' W 090°00'0 0.0
2014-Nov-16 16:33N 29°56' W 090°00'1 1.0
2014-Nov-16 15:32N 29°56' W 089°59'1 0.7
2014-Nov-16 13:33N 29°57' W 090°01'2 1.6
2014-Nov-16 12:30N 29°58' W 090°02'2 1.6
2014-Nov-16 11:30N 29°59' W 090°01'2 0.1
2014-Nov-15 19:28N 29°57' W 090°02'0 0.0
2014-Nov-15 18:32N 29°57' W 090°02'0 0.0
2014-Nov-15 17:23N 29°57' W 090°02'0 0.0
2014-Nov-15 16:33N 29°57' W 090°02'0 0.0
2014-Nov-15 15:33N 29°57' W 090°02'1 0.5
2014-Nov-15 14:32N 29°58' W 090°02'1 0.8
2014-Nov-15 13:33N 29°58' W 090°02'2 2.0
2014-Nov-15 12:29N 29°60' W 090°00'0 0.1
2014-Nov-15 11:33N 29°60' W 090°01'3 2.5
2014-Nov-15 10:34N 29°57' W 090°02'1 1.3
2014-Nov-15 09:26N 29°56' W 090°00'0 0.0
2014-Nov-15 08:23N 29°56' W 090°00'0 0.0
2014-Nov-15 07:24N 29°56' W 090°00'3 0.3
2014-Nov-14 21:22N 29°60' W 090°00'2 1.3
2014-Nov-14 19:29N 29°58' W 090°02'2 1.7
2014-Nov-14 18:04N 29°60' W 090°00'3 1.1
2014-Nov-14 15:30N 29°57' W 090°01'1 0.3
2014-Nov-14 12:31N 29°56' W 090°00'0 0.3
2014-Nov-14 11:23N 29°57' W 090°01'2 1.6
2014-Nov-14 10:24N 29°58' W 090°02'2 2.5
2014-Nov-14 09:31N 29°60' W 090°00'2 1.7
2014-Nov-14 08:33N 29°59' W 090°01'1 1.1
2014-Nov-14 07:32N 29°58' W 090°02'2 1.7
2014-Nov-14 06:33N 29°56' W 090°00'0 0.2
2014-Nov-14 05:31N 29°56' W 090°00'0 0.0
2014-Nov-14 04:31N 29°56' W 090°00'0 0.0
2014-Nov-14 03:31N 29°56' W 090°00'0 0.0
2014-Nov-14 02:33N 29°56' W 090°00'  

Dump ship's entire track history